#timestamp,LO_Frequency,Hit,StdDev 
1642575615.6,286046999.3,N
1642575635.5,286046996.7,N
1642575655.3,286046997.9,N
1642575675.2,286046999.6,N
1642575695.0,286046997.1,N
1642575695.9,286046997.1,N
1642575715.7,286046997.4,N
1642575735.6,286046996.5,N
1642575755.4,286046999.1,N
1642575775.3,286046998.9,N
1642575795.1,286046998.9,N
1642575796.0,286046998.9,N
1642575815.8,286046998.6,N
1642575835.7,286046998.5,N
1642575855.5,286046998.3,N
1642575875.3,286047001.1,N
1642575895.2,286046998.4,N
1642575915.0,286046998.3,N
1642575915.9,286046998.3,N
1642575935.8,286046998.3,N
1642575955.6,286046999.2,N
1642575975.4,286046997.7,N
1642575995.3,286046999.4,N
1642576015.1,286046996.6,N
1642576035.8,286046997.9,N
1642576055.7,286046996.1,Y
1642576075.5,286046997.8,P
1642576095.4,286046995.0,P
1642576115.2,286046997.1,N
1642576135.0,286046999.5,N
1642576135.9,286046999.5,N
1642576155.8,286046997.2,N
1642576175.6,286046994.9,Y
1642576195.5,286047000.5,P
1642576215.3,286047001.2,N
1642576235.1,286047000.6,N
1642576255.9,286047002.3,N
1642576275.7,286047002.1,N
1642576295.6,286047000.1,N
1642576315.4,286047000.9,N
1642576335.2,286047000.9,N
1642576355.1,286047001.2,N
1642576356.0,286047001.2,N
1642576375.8,286046998.5,N
1642576395.6,286046998.8,N
1642576415.5,286047001.2,N
1642576435.3,286046998.2,N
1642576455.2,286047000.8,N
1642576475.9,286047001.0,N
1642576495.7,286047001.0,N
1642576515.6,286047001.1,N
1642576535.4,286047000.6,N
1642576555.2,286046999.9,N
1642576575.1,286046998.4,N
1642576576.0,286046998.4,N
1642576595.8,286046997.4,N
1642576615.7,286046998.6,N
1642576635.5,286046999.3,N
1642576655.3,286046998.8,N
1642576675.2,286047001.2,N
1642576695.0,286046997.0,N
1642576695.9,286046997.0,N
1642576715.8,286046999.1,N
1642576735.6,286046999.1,N
1642576755.4,286046999.3,N
1642576775.3,286046999.1,N
1642576795.1,286046998.3,N
1642576815.8,286046998.3,N
1642576835.7,286046999.3,N
1642576855.5,286047000.8,N
1642576875.4,286047002.7,N
1642576895.2,286046999.8,N
1642576915.0,286046999.9,N
1642576915.9,286046999.9,N
1642576935.8,286046999.8,N
1642576955.6,286047000.8,N
1642576975.5,286046999.4,N
1642576995.3,286047001.0,N
1642577015.1,286047000.6,N
1642577035.9,286047000.3,N
1642577055.7,286047000.9,N
1642577075.6,286047000.0,N
1642577095.4,286047001.2,N
1642577115.2,286047000.2,N
1642577135.1,286047002.4,N
1642577136.0,286047002.4,N
1642577155.8,286047002.8,N
1642577175.6,286047000.1,N
1642577195.5,286047002.5,N
1642577215.3,286047004.3,N
1642577235.2,286047001.9,N
1642577255.9,286047003.6,N
1642577275.7,286047002.3,N
1642577295.6,286047001.0,N
1642577315.4,286047000.6,N
1642577335.3,286046999.7,N
1642577355.1,286047000.9,N
1642577356.0,286047000.9,N
1642577375.8,286047000.6,N
1642577395.7,286047001.0,N
1642577415.5,286047000.9,N
1642577435.3,286047002.6,N
1642577455.2,286047002.5,N
1642577475.0,286047001.8,N
1642577475.9,286047001.8,N
1642577495.8,286047005.6,Y
1642577515.6,286047001.4,P
1642577535.4,286047004.4,P
1642577555.3,286047002.1,N
1642577575.1,286047004.3,Y
1642577595.9,286046998.1,P
1642577615.7,286046999.6,N
1642577635.5,286047002.7,N
1642577655.4,286047001.0,N
1642577675.2,286046998.3,N
1642577695.0,286046999.5,N
1642577695.9,286046999.5,N
1642577715.8,286046997.7,N
1642577735.6,286046998.0,N
1642577755.5,286046997.5,N
1642577775.3,286046996.8,N
1642577795.1,286046996.5,N
1642577815.9,286046999.5,N
1642577835.7,286046996.6,N
1642577855.5,286046997.0,N
1642577875.4,286046997.0,N
1642577895.2,286047001.1,N
1642577915.1,286046996.6,N
1642577916.0,286046996.6,N
1642577935.8,286046994.9,N
1642577955.6,286046994.9,N
1642577975.5,286046995.0,N
1642577995.3,286046998.0,N
1642578015.1,286046997.8,N
1642578035.9,286046997.2,N
1642578055.7,286046995.3,N
1642578075.6,286046994.9,N
1642578095.4,286046995.6,N
1642578115.2,286046997.9,N
1642578135.1,286046995.7,N
1642578136.0,286046995.7,N
1642578155.8,286046995.3,N
1642578175.6,286046995.4,N
1642578195.5,286046997.4,N
1642578215.3,286046997.9,N
1642578235.2,286046998.8,N
1642578255.9,286047000.7,N
1642578275.7,286046998.7,N
1642578295.6,286046996.7,N
1642578315.4,286046997.8,N
1642578335.2,286046996.6,N
1642578355.1,286046999.1,N
1642578356.0,286046999.1,N
1642578375.8,286047000.5,N
1642578395.6,286046999.8,N
1642578415.5,286046998.5,N
1642578435.3,286047000.8,N
1642578455.2,286046999.3,N
1642578475.9,286046998.9,N
1642578495.7,286047001.0,N
1642578515.6,286046998.7,N
1642578535.4,286046998.7,N
1642578555.2,286046999.5,N
1642578575.1,286046996.6,N
1642578576.0,286046996.6,N
1642578595.8,286046999.6,N
1642578615.7,286046997.4,N
1642578635.5,286046997.1,N
1642578655.3,286046999.0,N
1642578675.2,286046999.6,N
1642578695.0,286046998.3,N
1642578695.9,286046998.3,N
1642578715.7,286046999.4,N
1642578735.6,286046996.7,N
1642578755.4,286046995.7,Y
1642578775.3,286046997.5,P
1642578795.1,286046996.8,P
1642578815.8,286046998.9,N
1642578835.7,286046999.1,N
1642578855.5,286047000.3,N
1642578875.4,286046998.2,N
1642578895.2,286047000.2,N
1642578915.0,286047000.2,N
1642578915.9,286047000.2,N
1642578935.8,286046998.6,N
1642578955.6,286046998.2,N
1642578975.5,286046998.3,N
1642578995.3,286047001.2,N
1642579015.1,286047004.2,Y
1642579035.9,286047014.9,P
1642579055.7,286047014.8,N
1642579075.5,286047013.7,N
1642579095.4,286047024.0,Y
1642579115.2,286047018.0,P
1642579135.1,286047016.1,P
1642579136.0,286047016.1,P
1642579155.8,286047009.7,Y
1642579175.6,286046992.0,P
1642579195.5,286046989.4,N
